Location: Katzenstein
(51.7484°N, 10.2155°E)
Time: 09:53:26
(UTC+00:00)

Lacrosse 5 - Pass Details

Date: 17 February 2020
Orbit: 715 x 724 km, 57.0° (Epoch: 21 March)

Event Time Altitude Azimuth Distance (km) Brightness Sun altitude
Exits shadow 04:38:35 34° 275° (W) 1,188 2.4 -18.0°
Maximum altitude 04:40:26 50° 221° (SW) 912 2.1 -17.7°
Drops below altitude 10° 04:45:20 10° 146° (SSE) 2,205 4.8 -16.9°
Sets 04:47:45 0° 142° (SE) 3,123 5.7 -16.5°
